星链-3370 (STARLINK-3370 )

导读 | 星芒AI

STARLINK-3370 是 SpaceX Starlink 项目中的一颗低轨通信卫星,属于第三代星链卫星(Gen3),旨在提升全球互联网覆盖和传输速度。该卫星采用先进推进系统和激光通信技术,以增强网络稳定性和减少延迟。作为 Starlink 卫星群的一部分,它支持偏远地区的高速互联网接入,并为商业和军事用户提供可靠通信服务。STARLINK-3370 于近期成功发射,进一步扩展了 Starlink 的全球网络能力。

基本信息
目录编号:
51127
目录名称:
STARLINK-3370
国际标识:
2022-005Z
轨道中心:
EARTH
卫星名称:
星链-3370
卫星全名:
星链-3370 (STARLINK-3370 )
卫星状态:
在轨 (已飞行1431 天)
发射日期:
2022-01-19 UTC
国别 :
美国 (US)
星等 :
--
轨道信息
数据来源 国际轨道数据 AOE轨道数据
星历时间 2025-12-20T11:12:33+0800
9小时前
查看轨道信息
2025-12-20T07:00:00+0800
13小时前
查看轨道信息
半长轴 6917.892km 6917.886km
偏心率 0.0001404 0.0001073
轨道倾角 53.219° 53.217°
近地点辐角 91.382° 81.567°
升交点赤经 296.273° 297.059°
平近点角 268.734° 45.359°
近地点 538.783km 539.006km
远地点 540.727km 540.492km
周期 95.438分钟 95.438分钟
每日圈数 15.088363 15.088382
详细信息
固有亮度:
5
最大亮度:
2.5
卫星平台:
Starlink v1.5
覆盖范围:
全球
运营商:
太空探索技术公司
运营商所在国:
美国
制造商(研发单位):
太空探索技术公司
制造商所在国:
美国
使用方式:
暂无
卫星简介
星链(Starlink)计划是由太空探索技术公司(SpaceX)提出的一个巨型低轨卫星互联网星座项目,计划在2019年至2024年间在太空搭建由约1.2万颗卫星组成的“星链”网络,其中1584颗将部署在地球上空550千米处的近地轨道,并从2020年开始工作。该卫星仍在工作。
2D轨道图
3D轨道图
轨道高度分析图
轨道倾角分析图
轨道综合分析图
查看轨道综合分析图